Погода в Новогуровском

Россия / Тульская область     54°28′01″N   37°20′21″E
темп.,
°C
ветер,
м/с
пор.,
м/с
влажн.,
%
обл.,
%
осадки,
мм/ч
давл.,
гПа
погр.,
м
9 мая, вс
вс900:00+7сз61096100 0.6 1002599
03:00+5сз71196100 0.8 1005708
06:00+3сз81497100 0.6 1008754
09:00+2сз71598100 4.4 1011840
12:00+6ссз81185100 1.9 10131172
15:00+7ссз71075100 2.0 10161328
18:00+9ссз61166100 0.0 10171030
21:00+5сз36795 0.1 102094
10 мая, пн
пн1000:00+4сз513795 0.0 1022253
03:00+2ссз411810 0.0 1025194
06:00+2с39820 0.0 1027201
09:00+8с59590 0.0 1028788
12:00+11ссв68450 0.0 10281369
15:00+12ссв68495 0.0 10271509
18:00+11ссв59620 0.0 1027754
21:00+6ссв48760 0.0 1029131
11 мая, вт
вт1100:00+4св410800 0.0 1029168
03:00+4ссв412820 0.0 1028211
06:00+5св615790 0.0 1029351
09:00+11св812705 0.0 1028568
12:00+15св796719 0.0 1026662
15:00+17всв7966100 0.0 10261016
18:00+15всв51079100 0.0 1026373
21:00+12св399217 0.0 1026179
12 мая, ср
ср1200:00+12св51291100 0.0 1024335
03:00+11всв5129799 0.3 1023368
06:00+12вюв4997100 0.1 1023569
09:00+10ююз2397100 1.9 1023219
12:00+11вюв2494100 2.4 1024278
15:00+15вюв5776100 2.4 10231075
18:00+14в3689100 0.2 1022277
21:00+12в269798 0.3 1021177
13 мая, чт
чт1300:00+12в3698100 0.1 1020168
03:00+11вюв3698100 0.4 1019146
06:00+12вюв3798100 0.0 1019280
09:00+14юв468992 0.1 1018560
12:00+17юв467338 0.2 10181098
15:00+18юв557113 1.1 10171067
18:00+18вюв357576 0.4 1017420
21:00+13вюв4793100 0.6 1017122